Date String (YYYY-MM-DD hh:mm:ss) UTC,Instrument flags,Ambient pressure (hPa),Sample flow (lpm),Bypass flow (lpm),Sample temperature (°C),Ambient temperature (°C),ASC tube jacket temperature (°C),LED temperature (°C),Box temperature (°C),Sample RH (%),Span deviation,Mass concentration (μg/m³),Mass concentration (μg/m³),Mass concentration (μg/m³)
DateTimeUTC,F1_M11,P_M11,Q1_M11,Q2_M11,T1_M11,T2_M11,T3_M11,T4_M11,T5_M11,U1_M11,ZSPAN_M11,X0_M11,X2_M11,X1_M11
2022-04-13 21:00:00,,0818.8,4.99,0.00,21.8,20.6,00.0,30.9,23.2,03.3,0000.0,0005.74,0002.24,0001.04
2022-04-13 21:01:00,,0818.8,5.00,0.00,21.8,20.6,00.0,30.9,23.3,03.4,0000.0,0006.22,0002.23,0001.05
2022-04-13 21:02:00,,0818.8,5.00,0.00,21.7,20.6,00.0,30.8,23.3,03.3,0000.0,0006.67,0002.23,0001.04
2022-04-13 21:03:00,,0818.9,5.01,0.00,21.7,20.6,00.0,30.8,23.2,03.3,0000.0,0006.61,0002.17,0001.05
2022-04-13 21:04:00,,0818.9,5.00,0.00,21.7,20.6,00.0,30.8,23.3,03.3,0000.0,0006.73,0002.10,0001.05
2022-04-13 21:05:00,,0818.9,5.00,0.00,21.7,20.7,00.0,30.8,23.3,03.4,0000.0,0006.98,0002.12,0001.06
2022-04-13 21:06:00,,0818.9,4.99,0.00,21.8,21.5,00.0,30.9,23.5,03.4,0000.0,0007.04,0002.12,0001.05
2022-04-13 21:07:00,,0818.9,5.00,0.00,21.9,22.5,00.0,30.9,23.9,03.4,0000.0,0007.12,0002.13,0001.04
2022-04-13 21:08:00,,0818.8,5.01,0.00,22.1,23.1,00.0,30.9,24.1,03.4,0000.0,0006.95,0002.07,0001.04
2022-04-13 21:09:00,,0818.8,5.00,0.00,22.1,22.8,00.0,31.0,24.1,03.5,0000.0,0006.72,0002.02,0001.05
2022-04-13 21:10:00,,0818.8,4.99,0.00,22.1,22.5,00.0,31.0,24.0,03.6,0000.0,0006.60,0002.02,0001.06
2022-04-13 21:11:00,,0818.8,5.01,0.00,22.1,22.2,00.0,31.0,23.9,03.6,0000.0,0006.18,0001.96,0001.07
2022-04-13 21:12:00,,0818.9,5.01,0.00,22.0,21.8,00.0,31.0,23.7,03.5,0000.0,0005.88,0001.96,0001.06
2022-04-13 21:13:00,,0818.8,5.00,0.00,22.0,21.5,00.0,31.0,23.6,03.5,0000.0,0006.53,0001.93,0001.06
2022-04-13 21:14:00,,0818.8,5.00,0.00,21.9,21.3,00.0,30.9,23.5,03.6,0000.0,0006.52,0001.89,0001.06
2022-04-13 21:15:00,,0818.8,4.99,0.00,21.8,21.1,00.0,30.9,23.4,03.6,0000.0,0006.02,0001.86,0001.04
2022-04-13 21:16:00,,0819.0,4.99,0.00,21.8,21.0,00.0,30.9,23.3,03.6,0000.0,0006.40,0001.80,0001.05
2022-04-13 21:17:00,,0818.9,5.00,0.00,21.7,20.9,00.0,30.9,23.3,03.6,0000.0,0006.55,0001.76,0001.06
2022-04-13 21:18:00,,0819.0,5.01,0.00,21.7,20.8,00.0,30.9,23.3,03.6,0000.0,0006.33,0001.72,0001.05
2022-04-13 21:19:00,,0818.9,4.99,0.00,21.7,20.8,00.0,30.8,23.3,03.6,0000.0,0006.26,0001.69,0001.06
2022-04-13 21:20:00,,0819.0,5.00,0.00,21.7,20.8,00.0,30.8,23.3,03.7,0000.0,0007.05,0001.71,0001.07
2022-04-13 21:21:00,,0818.9,5.00,0.00,21.7,20.8,00.0,30.8,23.3,03.6,0000.0,0007.70,0001.74,0001.08
2022-04-13 21:22:00,,0818.8,4.99,0.00,21.7,20.8,00.0,30.8,23.3,03.5,0000.0,0008.72,0001.79,0001.07
2022-04-13 21:23:00,,0818.8,5.00,0.00,21.7,20.8,00.0,30.8,23.4,03.6,0000.0,0008.86,0001.79,0001.06
2022-04-13 21:24:00,,0818.8,5.00,0.00,21.7,20.8,00.0,30.8,23.4,03.5,0000.0,0008.53,0001.76,0001.06
2022-04-13 21:25:00,,0818.7,5.00,0.00,21.7,20.9,00.0,30.8,23.4,03.5,0000.0,0008.41,0001.77,0001.06
2022-04-13 21:26:00,,0818.8,4.99,0.00,21.8,20.8,00.0,30.8,23.4,03.4,0000.0,0008.88,0001.78,0001.07
2022-04-13 21:27:00,,0818.8,5.00,0.00,21.7,20.8,00.0,30.8,23.4,03.4,0000.0,0008.53,0001.77,0001.07
2022-04-13 21:28:00,,0818.9,5.00,0.00,21.7,20.8,00.0,30.7,23.4,03.3,0000.0,0008.11,0001.77,0001.06
2022-04-13 21:29:00,,0818.8,5.00,0.00,21.7,20.8,00.0,30.7,23.3,03.2,0000.0,0008.15,0001.78,0001.06
2022-04-13 21:30:00,,0818.8,5.00,0.00,21.7,20.7,00.0,30.7,23.3,03.2,0000.0,0008.21,0001.81,0001.07
2022-04-13 21:31:00,,0818.8,5.00,0.00,21.7,20.7,00.0,30.7,23.3,03.3,0000.0,0008.07,0001.82,0001.06
2022-04-13 21:32:00,,0818.9,5.00,0.00,21.7,20.7,00.0,30.7,23.3,03.3,0000.0,0007.51,0001.85,0001.07
2022-04-13 21:33:00,,0818.9,5.01,0.00,21.7,20.7,00.0,30.7,23.3,03.4,0000.0,0006.58,0001.86,0001.08
2022-04-13 21:34:00,,0818.9,5.01,0.00,21.7,20.8,00.0,30.7,23.4,03.3,0000.0,0006.85,0001.84,0001.09
2022-04-13 21:35:00,,0818.9,4.99,0.00,21.7,20.7,00.0,30.7,23.3,03.2,0000.0,0006.33,0001.88,0001.10
2022-04-13 21:36:00,,0818.8,5.00,0.00,21.7,20.7,00.0,30.7,23.3,03.2,0000.0,0006.27,0001.90,0001.10
2022-04-13 21:37:00,,0818.8,5.00,0.00,21.7,20.7,00.0,30.7,23.3,03.2,0000.0,0005.65,0001.88,0001.10
2022-04-13 21:38:00,,0818.8,5.00,0.00,21.7,20.8,00.0,30.7,23.3,03.3,0000.0,0005.45,0001.91,0001.10
2022-04-13 21:39:00,,0818.8,4.99,0.00,21.8,21.6,00.0,30.7,23.5,03.3,0000.0,0006.63,0001.95,0001.12
2022-04-13 21:40:00,,0818.8,5.01,0.00,21.9,22.7,00.0,30.8,23.9,03.4,0000.0,0006.61,0001.94,0001.13
2022-04-13 21:41:00,,0818.8,5.01,0.00,22.1,23.3,00.0,30.9,24.2,03.4,0000.0,0006.55,0001.94,0001.13
2022-04-13 21:42:00,,0818.9,5.00,0.00,22.2,23.1,00.0,30.9,24.2,03.4,0000.0,0006.30,0001.92,0001.14
2022-04-13 21:43:00,,0818.8,4.99,0.00,22.1,22.7,00.0,30.9,24.1,03.8,0000.0,0006.20,0001.88,0001.12
2022-04-13 21:44:00,,0818.9,4.99,0.00,22.1,22.3,00.0,30.9,24.0,03.5,0000.0,0007.91,0001.83,0001.11
2022-04-13 21:45:00,,0819.0,5.00,0.00,22.1,22.1,00.0,30.9,23.9,03.5,0000.0,0007.64,0001.84,0001.12
2022-04-13 21:46:00,,0818.9,5.00,0.00,22.1,21.9,00.0,30.9,23.8,03.5,0000.0,0007.59,0001.79,0001.11
2022-04-13 21:47:00,,0819.0,5.01,0.00,22.1,21.7,00.0,31.0,23.8,03.4,0000.0,0007.46,0001.78,0001.11
2022-04-13 21:48:00,,0818.9,4.99,0.00,22.0,21.6,00.0,31.0,23.7,04.0,0000.0,0007.36,0001.76,0001.11
2022-04-13 21:49:00,,0818.9,5.00,0.00,22.0,21.5,00.0,31.0,23.7,04.2,0000.0,0007.77,0001.71,0001.09
2022-04-13 21:50:00,,0818.9,5.00,0.00,22.0,21.4,00.0,31.0,23.7,04.4,0000.0,0007.45,0001.67,0001.07
2022-04-13 21:51:00,,0818.9,5.00,0.00,22.0,21.3,00.0,31.0,23.7,04.4,0000.0,0007.93,0001.64,0001.04
2022-04-13 21:52:00,,0818.9,5.00,0.00,22.0,21.2,00.0,31.0,23.6,04.5,0000.0,0008.06,0001.63,0001.03
2022-04-13 21:53:00,,0818.9,5.01,0.00,21.9,21.1,00.0,31.0,23.6,04.6,0000.0,0008.05,0001.62,0001.01
2022-04-13 21:54:00,,0818.9,5.00,0.00,21.9,21.0,00.0,30.9,23.5,04.7,0000.0,0008.00,0001.59,0001.00
2022-04-13 21:55:00,,0819.0,5.00,0.00,21.8,20.9,00.0,30.9,23.4,04.8,0000.0,0006.31,0001.60,0001.00
2022-04-13 21:56:00,,0819.0,5.00,0.00,21.7,20.8,00.0,30.9,23.3,04.9,0000.0,0005.86,0001.57,0000.99
2022-04-13 21:57:00,,0819.0,5.00,0.00,21.7,20.7,00.0,30.9,23.3,05.0,0000.0,0006.21,0001.58,0000.99
2022-04-13 21:58:00,,0819.0,4.99,0.00,21.6,20.5,00.0,30.8,23.1,05.0,0000.0,0006.10,0001.56,0000.99
2022-04-13 21:59:00,,0819.0,5.00,0.00,21.5,20.4,00.0,30.8,23.1,05.1,0000.0,0006.06,0001.59,0000.98
